Location: New Plymouth
(39.0670°S, 174.0830°E)
Time: 20:50:45
(UTC+12:00)

Spot 2 Rocket - Pass Details

Date: 24 January 2019
Orbit: 757 x 773 km, 98.6° (Epoch: 21 April)

Event Time Altitude Azimuth Distance (km) Brightness Sun altitude
Rises 23:14:43 0° 172° (S) 3,279 7.4 -23.0°
Reaches altitude 10° 23:17:06 10° 176° (S) 2,342 6.7 -23.3°
Maximum altitude 23:22:07 54° 252° (WSW) 942 4.1 -23.9°
Enters shadow 23:25:03 24° 319° (NW) 1,563 4.9 -24.2°
